New Orleans Lakefront, LA

1:12 AM CDT on July 27, 2017 (GMT -0500)
Lakefront

Weather History for KNEW - May, 2013

Change the Weather History Date:

Tuesday, May 28, 2013

  Actual Average Record
Temperature  
Mean Temperature 79 °F 79 °F  
Max Temperature 86 °F 88 °F 96 °F (1953)
Min Temperature 72 °F 71 °F 54 °F (1961)
Degree Days  
Heating Degree Days 0 0  
Month to date heating degree days 16 0  
Since 1 July heating degree days 1146 1279  
Cooling Degree Days 14 14  
Month to date cooling degree days 241 317  
Year to date cooling degree days 445 574  
Growing Degree Days 28 (Base 50)    
Moisture  
Dew Point 66 °F    
Average Humidity 63    
Maximum Humidity 79    
Minimum Humidity 47    
Precipitation  
Precipitation 0.00 in 0.19 in 1.52 in (2014)
Month to date precipitation 5.25 4.07  
Year to date precipitation 31.75 23.68  
Snow  
Snow 0.00 in - - ()
Month to date snowfall 0.0  
Since 1 July snowfall 0.0  
Snow Depth 0.00 in    
Sea Level Pressure  
Sea Level Pressure 30.02 in    
Wind  
Wind Speed 10 mph (SE)    
Max Wind Speed 16 mph    
Max Gust Speed 22 mph    
Visibility 10 miles    
Events      
T = Trace of Precipitation, MM = Missing Value Source: NWS Daily Summary

Daily Weather History Graph

Daily Weather History Graph

Search for Another Location

Airport or City:

Trip Planner

Search our weather history database for the weather conditions in past years. The results will help you decide how hot, cold, wet, or windy it might be!

Date:

Astronomy

May. 28, 2013 Rise Set
Actual Time 6:00 AM CDT 7:54 PM CDT
Civil Twilight 5:33 AM CDT 8:21 PM CDT
Nautical Twilight 5:01 AM CDT 8:54 PM CDT
Astronomical Twilight 4:26 AM CDT 9:28 PM CDT
Moon 11:27 PM CDT (5/28) 9:42 AM CDT (5/28)
Length of Visible Light 14h 48m
Length of Day
13h 54m
Waning Gibbous, 82% of the Moon is Illuminated
May 28
Waning Gibbous
May 31
Last Quarter
Jun 8
New
Jun 16
First Quarter
Jun 23
Full

Hourly Weather History & Observations

Time (CDT) Temp. Heat Index Dew Point Humidity Pressure Visibility Wind Dir Wind Speed Gust Speed Precip Events Conditions
12:53 AM 73.9 °F - 64.9 °F 73% 30.06 in 10.0 mi SE 5.8 mph - N/A   Clear
1:53 AM 73.9 °F - 64.9 °F 73% 30.05 in 10.0 mi SE 5.8 mph - N/A   Clear
2:53 AM 73.0 °F - 64.9 °F 76% 30.03 in 10.0 mi SE 6.9 mph - N/A   Clear
3:53 AM 72.0 °F - 64.9 °F 78% 30.02 in 10.0 mi SSE 6.9 mph - N/A   Clear
4:53 AM 72.0 °F - 64.0 °F 76% 30.02 in 10.0 mi SSE 6.9 mph - N/A   Clear
5:53 AM 73.0 °F - 64.0 °F 73% 30.03 in 10.0 mi SE 6.9 mph - N/A   Clear
6:53 AM 73.9 °F - 66.0 °F 76% 30.03 in 10.0 mi SE 8.1 mph - N/A   Clear
7:53 AM 77.0 °F - 66.9 °F 71% 30.03 in 10.0 mi SE 10.4 mph - N/A   Clear
8:53 AM 80.1 °F 82.3 °F 66.9 °F 64% 30.03 in 10.0 mi SE 12.7 mph - N/A   Clear
9:53 AM 82.0 °F 83.8 °F 64.9 °F 56% 30.04 in 10.0 mi SSE 15.0 mph - N/A   Clear
10:53 AM 82.0 °F 83.8 °F 64.9 °F 56% 30.04 in 10.0 mi SSE 12.7 mph 18.4 mph N/A   Scattered Clouds
11:53 AM 84.9 °F 87.1 °F 66.0 °F 53% 30.05 in 10.0 mi SE 13.8 mph 20.7 mph N/A   Mostly Cloudy
12:53 PM 84.0 °F 86.3 °F 66.0 °F 55% 30.05 in 10.0 mi East 13.8 mph - N/A   Mostly Cloudy
1:53 PM 82.9 °F 84.6 °F 64.9 °F 54% 30.03 in 10.0 mi East 13.8 mph - N/A   Overcast
2:53 PM 84.9 °F 86.6 °F 64.9 °F 51% 30.02 in 10.0 mi ESE 12.7 mph - N/A   Scattered Clouds
3:53 PM 84.9 °F 86.1 °F 64.0 °F 49% 30.01 in 10.0 mi ESE 15.0 mph 21.9 mph N/A   Scattered Clouds
4:53 PM 84.0 °F 84.9 °F 63.0 °F 49% 30.00 in 10.0 mi ESE 11.5 mph - N/A   Clear
5:53 PM 82.9 °F 83.7 °F 62.1 °F 49% 30.00 in 10.0 mi East 15.0 mph - N/A   Clear
6:53 PM 82.0 °F 83.4 °F 64.0 °F 54% 29.99 in 10.0 mi ESE 13.8 mph - N/A   Clear
7:53 PM 80.1 °F 82.7 °F 68.0 °F 67% 29.99 in 10.0 mi ESE 12.7 mph - N/A   Partly Cloudy
8:53 PM 79.0 °F - 68.0 °F 69% 30.00 in 10.0 mi SE 9.2 mph - N/A   Clear
9:53 PM 78.1 °F - 70.0 °F 76% 30.01 in 10.0 mi ESE 9.2 mph - N/A   Clear
10:53 PM 78.1 °F - 70.0 °F 76% 30.02 in 10.0 mi ESE 10.4 mph - N/A   Clear
11:31 PM 78.8 °F - 71.6 °F 78% 30.03 in 10.0 mi SE 6.9 mph - N/A   Mostly Cloudy
11:53 PM 78.1 °F - 70.0 °F 76% 30.01 in 10.0 mi SE 10.4 mph - N/A   Overcast